Temp
18 17 17 17 17 17 17 17 17 17 17 16 16 16 15 15 15 14 13 13 13 13 13 13 12 12 13 13 13 13 13 13 13 13 12 12 12 11 11 11 11 11 10 10 10 10 10 10 10 10 10 10 10 10 10 10 10 10 10 10 10 9 9 9 10 10 10 10 10
18 17 17 17 17 17 16 16 16 17 17 16 16 16 15 15 15 14 14 13 13 13 13 13 13 13 13 13 12 13 13 13 13 12 12 12 12 11 11 11 11 11 10 10 10 10 10 10 10 10 10 10 10 10 10 10 10 10 10 10 10 9 9 9 10 10 10 10 10
18 18 17 17 17 17 16 16 16 16 17 16 16 16 15 15 15 14 14 13 13 13 13 13 13 13 13 12 12 12 13 13 12 12 12 12 12 11 11 11 11 11 10 10 10 10 10 10 10 10 10 10 10 10 10 10 10 10 10 10 10 9 9 10 10 10 10 10 10
18 18 17 17 17 17 16 16 16 16 16 16 16 16 15 15 15 14 14 13 13 13 13 13 13 12 12 12 12 12 12 12 12 12 12 12 12 11 11 11 11 11 10 10 10 10 10 9 9 10 10 10 10 10 10 10 10 10 10 10 10 10 9 10 10 10 10 10 10
18 18 17 17 17 16 16 16 16 16 16 16 16 16 15 15 14 14 14 14 13 13 13 13 13 13 12 12 12 12 12 12 12 12 12 12 11 11 11 11 11 11 11 10 10 10 10 9 9 10 10 10 10 10 10 10 10 10 10 10 10 10 10 10 10 10 10 9 9
18 18 17 17 17 16 16 16 16 16 16 16 16 15 15 15 14 14 14 13 13 13 13 13 13 13 12 12 12 12 12 12 12 12 12 12 11 11 11 11 11 11 11 11 10 10 10 10 9 9 10 10 10 10 10 10 10 10 10 10 10 10 10 10 10 10 9 9 9
18 17 17 17 17 16 16 16 16 16 16 16 16 15 15 15 14 14 13 13 13 13 13 13 13 13 13 13 12 12 12 12 12 12 12 12 12 11 11 11 11 11 11 11 10 10 10 10 10 10 10 10 10 10 10 10 10 10 10 10 10 10 10 10 10 10 9 9 9
18 17 17 17 17 16 16 16 16 16 16 16 16 15 15 15 14 14 13 13 13 13 13 13 13 13 13 13 13 13 13 12 12 12 12 12 12 12 11 11 11 11 11 11 11 10 10 10 10 10 10 10 10 10 10 10 10 10 10 10 10 10 10 10 10 10 9 9 9
18 17 17 17 16 16 16 16 16 16 16 16 15 15 15 15 14 14 14 13 13 13 13 13 13 13 13 13 13 13 13 13 13 12 12 12 12 12 11 11 11 11 11 11 11 10 10 10 10 10 10 10 10 10 10 10 10 10 10 10 10 10 10 10 10 10 10 9 9
17 17 17 17 16 16 16 16 16 16 16 15 15 15 15 14 14 14 13 13 13 13 13 13 13 13 13 13 13 13 13 13 13 12 12 12 12 12 12 11 11 11 11 11 11 10 10 10 10 10 10 10 10 10 10 10 10 10 10 10 10 10 10 10 10 10 10 9 9
17 17 17 17 16 16 16 16 15 15 15 15 15 15 15 14 14 13 13 13 13 13 13 13 13 13 13 13 13 13 13 13 13 12 12 12 12 12 12 11 11 11 11 11 11 10 10 10 10 10 10 10 10 10 10 10 10 10 10 10 10 10 10 10 10 9 9 9 9
17 17 17 16 16 16 16 15 15 15 15 15 15 15 14 14 13 13 13 13 13 13 13 13 13 13 13 13 13 13 13 13 13 12 12 12 12 12 11 11 11 11 11 11 11 10 10 10 10 10 10 10 10 10 10 10 10 10 10 10 10 10 10 10 9 9 9 9 9
17 17 16 16 16 16 16 15 15 15 15 15 15 15 14 14 13 13 13 13 13 13 13 13 13 13 13 13 13 13 13 13 13 12 12 12 12 12 11 11 11 11 11 11 10 10 10 10 10 10 10 10 10 10 10 10 10 10 10 10 10 10 10 10 10 9 9 9 9
17 17 16 16 16 16 15 15 15 15 15 14 15 14 14 13 13 13 13 13 13 13 13 13 13 13 13 13 13 13 13 13 13 12 12 12 12 12 11 11 11 11 11 10 10 10 10 10 10 10 10 10 10 10 10 10 10 10 10 10 10 10 10 10 10 9 9 9 9
17 17 16 16 16 16 15 15 15 15 14 14 14 14 14 13 13 13 13 13 13 13 13 13 13 13 13 13 13 13 13 13 13 13 12 12 12 12 11 11 11 11 11 11 10 10 11 11 10 10 10 10 10 10 10 10 10 10 10 10 10 10 10 10 10 9 9 9 9
17 17 16 16 16 15 15 15 15 14 14 14 14 14 13 13 13 13 13 13 13 13 13 13 13 13 13 13 13 13 13 13 13 13 13 12 12 12 11 11 11 11 11 11 11 11 11 11 10 10 10 10 10 10 10 10 10 10 10 10 10 10 10 10 10 9 9 9 9
17 16 16 16 16 15 15 15 15 14 14 14 14 14 13 13 13 12 13 13 13 13 13 12 13 13 12 13 13 13 13 13 13 13 12 12 12 12 11 11 11 11 11 11 11 11 11 11 10 10 10 10 10 10 10 10 10 10 10 10 10 10 10 10 10 9 9 9 9
16 16 16 16 16 15 15 15 14 14 14 14 13 13 13 13 12 13 13 13 13 13 12 13 13 13 13 13 13 13 13 13 13 13 12 12 12 12 12 11 11 11 11 11 11 11 11 11 10 10 10 10 10 10 10 10 10 10 10 10 10 10 10 10 10 10 9 9 9
16 16 16 16 15 15 15 15 14 14 14 13 13 13 13 12 12 13 13 13 13 13 13 13 13 13 13 13 13 13 13 13 12 12 12 12 12 12 12 12 11 11 11 11 11 11 11 11 10 10 10 10 10 10 10 10 10 10 10 10 10 10 10 10 10 10 10 10 9
15 16 15 15 15 15 15 14 14 14 13 13 13 13 12 12 12 13 13 13 13 12 13 13 13 13 13 13 13 12 12 12 12 12 12 12 12 12 11 12 11 11 11 11 11 11 11 11 10 10 10 10 10 10 10 10 10 10 10 10 10 10 10 10 10 10 10 9 9
15 15 15 15 15 15 14 14 14 14 13 13 12 12 12 12 13 13 13 13 12 12 13 13 13 13 13 12 12 12 12 12 12 12 12 12 12 11 11 11 12 11 11 11 11 11 11 11 10 10 10 10 10 10 10 10 10 10 10 10 10 10 10 10 10 10 10 9 9
15 15 15 15 15 14 14 14 14 13 13 12 12 12 12 12 13 13 12 12 12 12 12 13 13 12 12 12 12 12 12 12 12 12 12 12 12 12 11 11 11 11 11 11 11 11 11 11 11 10 10 10 10 10 10 10 10 10 10 10 10 10 10 10 10 10 9 9 9
14 15 15 15 14 14 14 14 13 13 13 12 12 12 12 12 13 12 12 12 12 12 12 12 12 12 12 12 12 12 12 13 12 12 12 12 12 12 12 11 11 11 11 11 11 11 11 11 11 11 11 10 10 10 10 10 10 10 10 10 10 10 10 10 10 9 9 9 9
14 14 14 14 14 14 14 13 13 13 12 12 12 12 12 12 12 12 12 12 13 13 12 12 12 12 12 12 12 12 12 13 12 12 12 12 12 12 12 12 11 11 11 11 11 11 11 11 11 11 11 10 10 10 10 10 10 10 10 10 10 10 10 10 9 9 9 9 9
14 14 14 14 14 14 13 13 13 12 12 12 12 12 12 12 12 12 12 12 13 12 12 12 12 12 12 12 12 12 13 12 12 12 12 12 12 12 12 12 11 11 11 11 11 11 11 11 11 11 11 10 10 10 10 10 10 10 10 10 9 9 9 9 9 9 9 9 9
13 14 14 14 14 14 13 13 12 12 12 12 12 12 12 12 12 12 12 12 12 12 12 12 12 12 12 12 12 12 12 12 12 12 12 12 12 12 12 11 11 11 11 11 11 11 11 11 11 11 11 10 10 10 10 10 10 9 9 9 9 9 9 9 9 9 9 9 9
12 13 13 13 13 13 13 13 12 12 12 12 12 12 12 12 12 12 12 12 12 12 12 12 12 12 12 12 12 12 12 12 12 12 12 12 12 12 11 11 11 11 11 11 11 11 11 11 11 10 10 10 10 10 10 10 9 9 9 10 10 10 10 10 10 9 9 9 9
11 12 12 12 12 13 13 13 12 12 12 12 12 12 12 12 12 12 12 12 12 12 12 12 12 12 12 12 12 12 12 12 12 12 12 12 11 11 11 11 11 11 11 11 11 11 11 10 10 10 10 10 10 10 10 10 9 9 9 9 9 9 10 10 10 9 9 9 9
10 11 12 12 12 12 13 13 12 12 12 12 12 12 12 12 12 12 12 12 12 12 12 12 11 12 12 12 12 12 11 11 11 11 11 11 11 11 11 11 11 11 11 11 11 10 10 10 10 10 10 10 10 10 9 9 9 9 9 9 9 9 9 9 9 9 9 9 9
10 10 11 12 12 13 13 13 12 12 12 12 12 12 12 12 12 12 12 12 12 12 12 12 12 12 12 12 12 11 11 11 12 12 12 11 11 11 10 10 10 10 10 10 10 10 10 10 10 10 10 10 10 10 9 9 9 9 9 9 9 9 9 9 9 9 9 9 9
9 10 11 12 12 13 13 13 12 12 12 12 12 12 12 11 11 12 12 12 12 12 12 12 12 12 12 12 11 11 11 11 12 12 11 11 10 10 10 10 10 10 10 10 10 10 10 10 10 10 10 10 10 10 10 10 9 9 9 9 9 9 9 9 9 9 9 9 9
9 9 11 12 13 13 13 12 12 12 12 12 12 12 12 11 12 12 12 12 11 11 12 12 12 12 12 11 11 11 11 11 11 11 10 10 10 11 11 11 11 10 10 10 10 10 10 10 10 10 10 10 10 10 10 9 9 9 9 9 9 9 9 9 9 9 9 9 9
9 9 10 12 12 12 12 12 12 12 12 12 12 12 12 12 12 12 11 11 11 12 12 12 12 11 11 11 11 11 11 11 11 11 11 10 10 11 11 11 11 10 10 10 10 10 10 10 10 10 10 10 10 10 10 9 9 9 9 9 9 9 9 9 9 9 9 9 9
9 9 10 11 12 12 12 12 12 12 12 12 12 12 11 11 11 11 11 11 11 11 11 11 11 11 11 11 11 11 11 11 11 11 11 11 11 11 11 11 10 10 10 10 10 10 10 10 10 10 10 10 10 10 10 9 9 9 9 9 9 9 9 9 9 9 9 9 9
9 9 10 11 11 11 11 12 12 12 12 11 11 11 11 11 11 11 11 11 11 11 11 11 11 11 11 11 11 11 11 11 11 11 11 11 11 10 10 10 10 10 10 10 10 10 9 9 9 9 10 10 10 10 10 9 9 9 9 9 9 9 9 9 9 9 9 9 9
9 9 10 10 11 11 11 11 11 11 11 11 11 11 11 11 11 11 11 11 11 11 11 11 11 11 11 11 10 10 11 11 10 10 11 11 11 10 10 10 10 10 10 10 9 9 9 9 9 9 9 9 9 9 9 9 9 9 9 9 9 9 9 9 9 9 9 9 9
9 9 10 10 10 11 11 11 11 11 11 11 10 10 10 11 11 11 11 11 11 11 11 11 11 11 11 10 10 10 10 10 10 10 10 10 10 10 10 10 10 10 10 9 9 9 9 9 9 9 9 9 9 9 9 9 9 9 9 9 9 9 9 9 9 9 9 9 9
9 9 9 10 10 11 11 11 11 11 10 10 9 10 10 10 10 10 11 11 11 11 10 10 10 10 10 10 10 9 9 10 10 10 10 10 10 10 10 10 10 10 9 9 9 9 9 9 9 9 9 9 9 9 9 9 9 9 9 9 9 8 8 8 8 8 8 8 8
9 9 9 10 10 11 11 11 11 10 9 9 9 10 10 10 10 11 11 11 11 11 10 10 9 10 10 10 9 9 9 9 10 10 10 10 10 10 10 10 10 9 9 9 9 9 9 9 9 9 9 9 9 9 9 9 8 8 8 8 8 8 8 8 7 7 7 7 7
9 9 8 9 10 11 11 11 10 9 9 9 9 10 10 11 11 11 11 10 10 10 10 9 9 9 9 9 9 9 9 9 9 9 10 10 10 10 10 10 9 9 9 8 8 9 9 9 9 8 8 8 8 8 8 8 8 8 8 8 7 7 7 7 7 7 7 7 6
9 9 8 9 10 10 11 10 9 9 9 9 10 10 10 11 10 10 10 10 9 9 9 9 9 9 9 9 9 9 9 9 9 9 9 9 9 9 10 10 9 9 8 8 8 8 8 8 8 8 8 8 8 8 8 8 8 8 8 7 7 7 7 7 6 6 6 6 6
Height
1371 1373 1374 1375 1376 1378 1379 1380 1382 1383 1384 1385 1385 1386 1386 1387 1388 1389 1390 1391 1392 1392 1393 1394 1395 1396 1398 1399 1400 1402 1404 1405 1406 1407 1408 1409 1410 1412 1414 1415 1416 1417 1418 1419 1421 1422 1424 1426 1427 1429 1430 1431 1433 1434 1435 1437 1438 1439 1440 1442 1443 1445 1446 1447 1448 1450 1451 1452 1454
1369 1370 1372 1373 1375 1376 1377 1379 1380 1382 1383 1384 1384 1384 1385 1386 1386 1387 1388 1389 1390 1391 1392 1393 1394 1395 1396 1398 1399 1400 1402 1404 1405 1405 1406 1408 1410 1411 1413 1414 1415 1416 1417 1418 1419 1421 1422 1424 1426 1427 1429 1430 1431 1432 1434 1435 1436 1438 1439 1440 1442 1443 1444 1445 1446 1448 1449 1451 1452
1367 1369 1370 1371 1373 1374 1375 1377 1378 1380 1381 1382 1382 1383 1383 1384 1385 1386 1387 1388 1389 1390 1391 1392 1393 1394 1395 1396 1397 1399 1400 1402 1403 1404 1405 1406 1408 1410 1411 1412 1413 1414 1415 1416 1418 1419 1421 1423 1424 1425 1427 1428 1429 1430 1432 1433 1435 1436 1438 1439 1440 1441 1443 1444 1445 1446 1448 1450 1451
1365 1367 1368 1369 1370 1372 1373 1375 1376 1378 1380 1380 1381 1381 1382 1383 1383 1384 1385 1387 1388 1389 1390 1390 1391 1392 1394 1395 1396 1397 1399 1400 1401 1403 1404 1405 1407 1408 1410 1411 1412 1413 1414 1415 1416 1418 1419 1421 1423 1424 1425 1426 1428 1429 1430 1431 1433 1435 1436 1437 1439 1440 1441 1442 1444 1445 1447 1448 1450
1363 1365 1366 1367 1368 1370 1371 1373 1375 1376 1378 1379 1380 1380 1380 1381 1381 1383 1384 1385 1386 1387 1388 1389 1390 1391 1392 1394 1394 1395 1397 1399 1400 1401 1402 1404 1405 1407 1408 1409 1410 1411 1412 1414 1415 1416 1418 1420 1421 1423 1424 1425 1426 1427 1429 1430 1431 1433 1434 1436 1437 1438 1439 1440 1442 1444 1445 1447 1449
1362 1363 1364 1365 1366 1368 1370 1371 1373 1375 1376 1377 1378 1378 1378 1379 1380 1380 1382 1383 1384 1385 1387 1388 1389 1390 1391 1392 1393 1394 1396 1397 1398 1400 1401 1402 1403 1405 1406 1408 1409 1410 1411 1412 1413 1415 1416 1418 1420 1421 1423 1424 1425 1426 1428 1429 1430 1431 1433 1434 1435 1437 1438 1439 1441 1443 1444 1446 1447
1360 1361 1362 1363 1365 1366 1367 1369 1371 1373 1374 1375 1376 1376 1376 1377 1378 1379 1380 1381 1382 1384 1385 1387 1388 1389 1390 1391 1391 1392 1394 1395 1396 1398 1399 1400 1402 1403 1405 1406 1407 1409 1410 1410 1412 1413 1415 1416 1418 1420 1421 1423 1424 1425 1427 1428 1429 1430 1431 1432 1434 1435 1437 1438 1440 1441 1443 1444 1445
1359 1360 1360 1362 1363 1364 1365 1367 1369 1371 1372 1373 1374 1374 1375 1375 1376 1377 1378 1380 1381 1382 1384 1385 1387 1388 1389 1390 1390 1391 1392 1394 1395 1396 1398 1399 1400 1402 1404 1405 1406 1407 1408 1409 1410 1411 1413 1415 1416 1418 1419 1421 1422 1424 1425 1426 1427 1429 1430 1431 1432 1434 1435 1437 1438 1440 1441 1442 1443
1357 1358 1359 1360 1361 1362 1364 1365 1367 1369 1370 1371 1372 1373 1373 1374 1375 1376 1377 1378 1379 1380 1382 1384 1386 1387 1388 1389 1389 1390 1391 1392 1394 1395 1396 1397 1399 1400 1402 1404 1405 1405 1406 1408 1409 1410 1411 1413 1415 1416 1417 1419 1420 1422 1423 1425 1426 1427 1429 1430 1431 1432 1434 1435 1436 1438 1439 1440 1441
1355 1356 1357 1358 1360 1361 1362 1364 1365 1366 1368 1369 1370 1371 1372 1372 1373 1374 1375 1376 1378 1379 1381 1383 1385 1386 1387 1387 1388 1389 1390 1391 1392 1394 1395 1396 1397 1399 1400 1402 1403 1404 1405 1406 1407 1409 1410 1412 1413 1415 1416 1417 1418 1420 1422 1423 1425 1426 1427 1429 1430 1431 1432 1433 1435 1435 1437 1438 1439
1353 1354 1355 1356 1358 1359 1361 1362 1364 1365 1366 1368 1369 1370 1370 1371 1372 1373 1374 1375 1376 1378 1380 1381 1383 1385 1385 1386 1387 1388 1389 1390 1391 1392 1393 1395 1396 1397 1399 1400 1402 1403 1404 1405 1406 1407 1409 1410 1411 1413 1414 1415 1417 1419 1420 1422 1423 1425 1426 1427 1429 1430 1431 1432 1433 1434 1435 1436 1437
1351 1352 1353 1355 1356 1358 1359 1360 1362 1363 1365 1365 1367 1368 1369 1370 1370 1372 1373 1374 1375 1376 1378 1380 1382 1383 1384 1385 1385 1386 1388 1389 1390 1390 1392 1393 1395 1396 1397 1399 1400 1401 1402 1403 1405 1406 1407 1408 1410 1411 1412 1414 1415 1417 1419 1420 1422 1423 1425 1426 1427 1429 1430 1430 1431 1432 1433 1434 1435
1349 1350 1351 1353 1355 1356 1358 1359 1360 1361 1362 1363 1365 1366 1367 1368 1369 1370 1371 1372 1373 1375 1377 1379 1380 1382 1383 1384 1385 1385 1387 1388 1388 1389 1390 1392 1393 1395 1396 1398 1399 1400 1401 1402 1403 1404 1405 1406 1408 1409 1411 1412 1414 1415 1417 1419 1420 1422 1423 1425 1426 1427 1428 1429 1430 1431 1432 1433 1434
1347 1348 1349 1351 1353 1355 1356 1358 1359 1360 1361 1361 1363 1364 1366 1367 1368 1369 1370 1370 1372 1374 1375 1377 1379 1381 1382 1383 1384 1385 1386 1386 1387 1388 1389 1390 1392 1393 1395 1396 1397 1399 1399 1400 1401 1402 1403 1405 1406 1408 1409 1411 1413 1414 1416 1417 1419 1420 1421 1423 1424 1425 1426 1427 1428 1429 1430 1431 1432
1345 1346 1348 1350 1351 1353 1355 1356 1358 1359 1360 1360 1361 1362 1364 1365 1366 1367 1368 1369 1370 1372 1374 1376 1378 1380 1381 1382 1383 1384 1385 1385 1386 1387 1388 1389 1390 1392 1393 1394 1395 1397 1398 1398 1400 1400 1402 1403 1405 1406 1408 1410 1411 1413 1415 1416 1417 1419 1420 1421 1422 1423 1424 1425 1426 1427 1428 1430 1431
1344 1345 1347 1348 1350 1352 1354 1356 1357 1358 1359 1359 1360 1361 1362 1363 1364 1365 1366 1367 1369 1371 1373 1375 1376 1378 1380 1381 1382 1383 1384 1385 1385 1386 1387 1388 1389 1390 1392 1393 1394 1395 1396 1397 1398 1399 1401 1402 1404 1405 1407 1409 1410 1412 1413 1415 1416 1417 1419 1420 1420 1421 1422 1424 1425 1425 1427 1428 1429
1344 1345 1346 1348 1349 1350 1352 1355 1356 1357 1358 1358 1359 1360 1361 1362 1362 1363 1365 1365 1367 1370 1372 1373 1374 1376 1378 1379 1380 1381 1382 1383 1384 1385 1386 1387 1388 1389 1390 1391 1392 1393 1394 1395 1397 1398 1400 1402 1403 1405 1406 1408 1409 1410 1412 1413 1415 1416 1417 1418 1419 1420 1421 1422 1423 1424 1425 1427 1428
1343 1344 1345 1346 1347 1349 1351 1353 1355 1356 1357 1357 1358 1359 1360 1360 1360 1361 1363 1364 1367 1369 1370 1371 1372 1374 1376 1377 1379 1380 1381 1382 1383 1384 1385 1386 1387 1389 1389 1390 1391 1392 1393 1395 1396 1398 1400 1401 1403 1404 1405 1407 1408 1410 1411 1412 1413 1414 1415 1416 1417 1418 1419 1420 1421 1423 1424 1425 1426
1343 1343 1343 1345 1346 1347 1349 1351 1353 1355 1356 1356 1357 1358 1359 1359 1359 1360 1362 1364 1366 1368 1368 1370 1371 1373 1375 1376 1377 1379 1380 1380 1381 1383 1384 1386 1387 1388 1389 1389 1390 1391 1393 1394 1396 1397 1399 1400 1402 1403 1405 1406 1408 1409 1410 1411 1412 1413 1414 1415 1416 1417 1418 1419 1420 1422 1423 1424 1425
1341 1342 1342 1343 1345 1346 1348 1350 1352 1353 1355 1355 1356 1357 1357 1357 1357 1359 1361 1363 1365 1366 1367 1368 1370 1371 1373 1375 1376 1377 1378 1379 1380 1382 1384 1385 1386 1387 1388 1389 1389 1390 1392 1394 1395 1397 1398 1400 1401 1402 1404 1405 1407 1408 1409 1410 1411 1412 1413 1414 1415 1416 1417 1418 1419 1420 1421 1422 1423
1340 1341 1341 1342 1344 1345 1346 1348 1350 1352 1353 1354 1355 1356 1356 1356 1356 1358 1360 1362 1363 1364 1365 1367 1369 1370 1371 1373 1374 1375 1377 1378 1380 1381 1382 1383 1384 1385 1386 1388 1389 1390 1391 1393 1394 1396 1397 1399 1400 1401 1403 1404 1405 1407 1408 1409 1410 1410 1412 1413 1414 1415 1416 1417 1418 1419 1420 1421 1422
1340 1341 1341 1342 1343 1344 1345 1347 1349 1351 1352 1353 1354 1354 1355 1355 1355 1357 1359 1360 1361 1363 1364 1366 1367 1369 1370 1371 1373 1374 1376 1377 1379 1380 1380 1381 1382 1384 1385 1387 1388 1390 1390 1392 1393 1395 1396 1397 1399 1400 1401 1403 1404 1405 1407 1408 1409 1410 1411 1412 1413 1414 1415 1416 1417 1418 1419 1420 1421
1339 1340 1340 1341 1341 1343 1344 1346 1348 1350 1350 1351 1352 1353 1354 1354 1355 1356 1357 1358 1360 1361 1362 1364 1366 1367 1369 1370 1372 1373 1375 1376 1378 1379 1380 1380 1382 1383 1385 1386 1388 1389 1390 1391 1392 1393 1395 1396 1398 1399 1400 1402 1403 1405 1405 1407 1408 1409 1410 1411 1412 1413 1414 1415 1416 1417 1418 1419 1420
1337 1338 1338 1339 1340 1341 1343 1345 1347 1348 1349 1349 1350 1351 1352 1353 1354 1354 1355 1356 1358 1359 1361 1363 1365 1366 1368 1370 1371 1372 1374 1375 1377 1378 1379 1380 1381 1383 1384 1386 1387 1388 1389 1390 1391 1392 1394 1395 1397 1398 1400 1401 1402 1404 1405 1406 1407 1408 1409 1410 1411 1412 1413 1414 1415 1416 1417 1418 1418
1337 1337 1337 1337 1338 1339 1341 1343 1345 1346 1346 1347 1348 1349 1350 1351 1352 1352 1353 1355 1356 1357 1359 1361 1364 1365 1367 1369 1370 1371 1373 1374 1375 1376 1378 1379 1380 1382 1384 1385 1386 1387 1388 1389 1390 1392 1393 1394 1396 1397 1399 1400 1401 1403 1404 1405 1406 1407 1408 1409 1410 1411 1412 1413 1414 1415 1415 1416 1417
1335 1336 1336 1335 1336 1338 1340 1341 1343 1344 1345 1346 1346 1347 1349 1350 1350 1351 1352 1353 1354 1356 1358 1360 1362 1364 1366 1368 1369 1371 1372 1373 1374 1375 1376 1378 1380 1381 1383 1384 1385 1386 1387 1389 1390 1391 1393 1394 1395 1397 1398 1400 1401 1402 1403 1404 1405 1407 1408 1409 1410 1410 1411 1412 1412 1413 1414 1415 1415
1333 1334 1335 1335 1335 1336 1338 1340 1341 1343 1344 1344 1345 1345 1347 1347 1348 1350 1351 1352 1353 1355 1356 1359 1361 1363 1365 1367 1368 1370 1371 1372 1374 1374 1375 1376 1379 1380 1382 1383 1384 1385 1387 1389 1390 1391 1393 1394 1395 1396 1398 1399 1400 1401 1403 1404 1405 1406 1407 1408 1409 1410 1410 1411 1411 1412 1413 1413 1414
1331 1332 1333 1334 1334 1335 1336 1338 1340 1341 1342 1342 1343 1344 1345 1346 1347 1348 1350 1351 1352 1354 1355 1357 1360 1361 1364 1365 1367 1370 1371 1372 1373 1374 1375 1376 1378 1380 1381 1383 1384 1385 1387 1388 1390 1391 1392 1393 1395 1396 1397 1398 1400 1401 1402 1404 1405 1406 1407 1408 1408 1409 1409 1409 1410 1410 1411 1412 1413
1330 1331 1332 1332 1333 1334 1335 1337 1338 1339 1340 1340 1341 1342 1343 1345 1346 1347 1349 1350 1351 1352 1354 1356 1358 1360 1362 1365 1367 1369 1370 1370 1372 1373 1375 1376 1378 1380 1381 1383 1384 1385 1386 1388 1389 1390 1391 1392 1394 1395 1396 1398 1400 1401 1402 1403 1404 1405 1406 1406 1407 1408 1409 1410 1410 1410 1410 1411 1412
1330 1330 1330 1331 1332 1333 1333 1335 1336 1337 1337 1338 1340 1341 1342 1344 1345 1347 1348 1349 1350 1351 1352 1353 1356 1359 1361 1364 1366 1368 1369 1370 1372 1374 1376 1377 1379 1380 1381 1382 1383 1384 1385 1387 1388 1389 1390 1392 1393 1395 1396 1398 1400 1400 1400 1401 1401 1402 1403 1403 1404 1405 1406 1406 1408 1409 1410 1411 1412
1328 1328 1328 1330 1330 1331 1331 1332 1334 1335 1335 1337 1338 1340 1341 1342 1344 1346 1347 1348 1348 1349 1350 1352 1355 1358 1361 1364 1366 1367 1369 1371 1373 1375 1376 1376 1378 1379 1379 1380 1381 1383 1385 1386 1387 1388 1389 1390 1391 1393 1394 1395 1396 1396 1397 1398 1399 1400 1401 1402 1403 1404 1405 1405 1406 1407 1408 1410 1411
1325 1326 1327 1329 1329 1329 1329 1330 1331 1332 1334 1335 1337 1338 1340 1342 1344 1345 1346 1346 1346 1347 1350 1352 1355 1358 1362 1365 1366 1368 1370 1371 1372 1373 1373 1374 1375 1376 1377 1379 1381 1383 1384 1385 1386 1386 1387 1388 1390 1391 1392 1394 1395 1396 1397 1398 1399 1400 1400 1401 1402 1403 1404 1405 1406 1407 1408 1409 1410
1323 1324 1325 1327 1327 1327 1328 1329 1330 1331 1333 1335 1336 1338 1340 1342 1343 1344 1345 1345 1346 1348 1350 1353 1356 1359 1362 1365 1366 1367 1366 1366 1367 1368 1370 1372 1374 1375 1377 1379 1380 1382 1383 1384 1385 1385 1386 1388 1389 1390 1391 1392 1394 1395 1396 1397 1398 1398 1399 1400 1401 1402 1403 1404 1405 1406 1406 1408 1409
1322 1323 1324 1325 1325 1325 1326 1328 1330 1331 1332 1334 1336 1338 1340 1341 1341 1342 1343 1343 1345 1347 1349 1352 1355 1357 1358 1360 1361 1361 1362 1364 1366 1368 1370 1371 1373 1375 1376 1378 1379 1381 1382 1383 1384 1385 1386 1387 1388 1389 1390 1391 1393 1394 1395 1396 1397 1397 1398 1399 1400 1401 1402 1403 1404 1405 1405 1406 1407
1321 1322 1323 1324 1324 1325 1326 1328 1329 1331 1332 1334 1336 1338 1339 1338 1338 1339 1339 1340 1341 1343 1346 1349 1350 1352 1355 1358 1359 1360 1361 1363 1365 1367 1369 1371 1372 1374 1375 1377 1378 1380 1381 1383 1383 1384 1385 1386 1387 1389 1390 1391 1392 1393 1394 1395 1396 1397 1397 1398 1399 1400 1401 1402 1403 1403 1404 1405 1406
1320 1321 1322 1323 1324 1325 1326 1327 1329 1330 1332 1334 1335 1335 1334 1334 1335 1336 1337 1339 1340 1342 1345 1348 1350 1351 1354 1356 1357 1359 1360 1362 1364 1366 1368 1370 1372 1373 1375 1376 1378 1379 1380 1382 1383 1384 1385 1386 1387 1388 1389 1390 1391 1392 1393 1394 1395 1396 1396 1397 1398 1399 1400 1401 1402 1403 1403 1404 1405
1319 1320 1321 1322 1323 1324 1325 1327 1328 1330 1332 1333 1331 1330 1331 1332 1334 1336 1337 1339 1340 1342 1345 1347 1349 1350 1352 1355 1356 1358 1360 1362 1364 1366 1368 1370 1371 1373 1374 1375 1377 1378 1380 1381 1382 1383 1384 1385 1386 1387 1388 1390 1390 1391 1392 1393 1394 1395 1396 1397 1398 1399 1400 1400 1401 1402 1402 1403 1404
1317 1318 1319 1320 1322 1323 1324 1326 1328 1330 1330 1329 1328 1328 1329 1330 1333 1335 1337 1338 1340 1343 1345 1347 1348 1350 1352 1354 1355 1357 1359 1362 1364 1365 1367 1369 1370 1372 1373 1374 1376 1378 1379 1380 1382 1383 1384 1385 1386 1387 1388 1389 1390 1391 1392 1393 1394 1395 1395 1396 1397 1398 1399 1400 1400 1401 1402 1403 1403
1316 1316 1317 1320 1320 1322 1323 1325 1328 1328 1327 1325 1326 1326 1327 1329 1331 1334 1336 1338 1340 1343 1345 1346 1348 1350 1351 1353 1355 1357 1359 1361 1363 1365 1366 1368 1370 1371 1372 1374 1375 1377 1378 1380 1381 1383 1384 1385 1386 1387 1388 1389 1390 1390 1391 1392 1393 1394 1395 1396 1397 1398 1399 1400 1400 1401 1402 1403 1403
1314 1315 1316 1319 1320 1321 1323 1325 1326 1325 1323 1323 1324 1325 1326 1328 1330 1333 1335 1338 1341 1343 1345 1346 1347 1349 1351 1353 1355 1357 1359 1361 1363 1365 1366 1367 1369 1370 1372 1374 1375 1376 1378 1380 1381 1382 1383 1385 1385 1387 1388 1389 1390 1390 1391 1392 1393 1394 1395 1395 1396 1397 1398 1399 1400 1401 1401 1402 1403
1311 1313 1315 1318 1320 1322 1323 1322 1321 1320 1320 1321 1321 1323 1325 1327 1329 1332 1335 1338 1341 1343 1344 1346 1348 1349 1351 1353 1355 1357 1359 1361 1363 1364 1366 1367 1369 1370 1372 1373 1375 1376 1377 1379 1380 1382 1383 1384 1385 1386 1387 1388 1389 1390 1391 1391 1392 1393 1394 1395 1396 1397 1398 1399 1400 1400 1401 1402 1403
Wind_Speed
33 32 32 31 31 30 30 29 29 28 27 27 27 27 28 28 27 27 27 27 27 26 26 27 28 30 32 35 37 39 41 43 44 43 41 40 38 38 38 37 36 36 35 34 33 33 33 33 34 34 35 35 37 39 42 44 45 46 46 45 44 45 46 45 44 41 40 39 38
33 32 32 31 30 30 29 29 28 28 27 26 27 27 28 28 27 26 26 26 26 26 25 25 27 29 31 33 35 38 40 43 44 43 42 40 38 37 37 37 37 36 35 34 33 33 33 33 34 34 35 35 37 38 40 42 44 45 45 46 45 46 46 46 44 43 41 40 39
32 32 31 31 31 30 29 29 28 28 27 26 26 27 27 27 27 26 26 26 25 25 25 25 27 29 30 32 34 36 38 41 42 43 42 41 39 38 37 37 37 36 35 34 33 32 32 33 34 34 35 36 37 38 39 40 42 43 44 46 47 47 46 46 45 44 42 40 39
32 32 31 31 31 30 30 29 28 28 27 26 26 26 27 27 27 26 26 25 25 25 25 26 27 28 29 31 33 35 36 38 40 41 42 41 40 39 38 37 37 36 35 34 33 32 32 33 34 35 35 36 37 38 39 40 41 42 44 46 47 48 48 47 46 45 43 41 39
31 32 32 31 31 31 30 29 28 28 27 26 25 26 27 27 27 26 26 25 26 26 26 26 26 27 28 30 32 34 35 36 37 39 40 40 40 39 38 38 37 37 35 34 33 32 32 32 33 35 36 37 37 38 39 40 40 41 43 45 47 48 48 48 47 45 43 41 39
31 31 31 32 31 31 30 29 29 28 27 26 26 26 26 27 27 27 26 26 27 27 27 27 26 26 28 29 31 32 33 35 36 38 39 39 39 39 38 38 37 36 35 34 33 32 31 32 33 34 35 37 37 38 38 39 40 40 42 44 44 46 48 47 46 44 42 40 38
30 31 31 31 31 31 30 30 29 28 27 26 26 26 27 27 27 28 27 27 27 28 28 28 26 26 27 28 30 31 32 34 35 37 38 38 38 38 38 38 37 36 35 34 33 32 32 32 32 33 34 36 37 37 37 38 38 38 39 41 41 43 45 45 45 43 41 39 38
29 30 31 31 31 31 31 30 29 29 28 26 26 26 27 27 27 28 28 28 28 29 30 29 28 27 27 28 29 30 31 33 34 35 37 37 37 37 36 36 36 36 35 34 33 32 32 32 32 32 33 35 37 38 39 38 36 35 35 36 38 39 40 42 43 42 41 40 39
27 29 30 31 31 31 31 30 30 29 29 27 26 26 26 27 27 28 28 28 29 29 30 30 29 28 27 28 29 30 31 32 33 34 35 36 35 35 35 35 36 36 35 35 34 33 32 32 32 32 34 35 38 39 39 38 35 33 33 33 34 35 37 38 40 41 41 41 40
27 28 29 30 30 30 30 30 30 30 29 28 27 26 25 26 26 27 28 29 29 29 29 30 30 29 28 29 30 30 31 31 32 33 33 34 33 33 34 34 35 36 35 35 34 33 32 32 32 33 35 37 39 39 39 38 36 34 33 33 33 33 34 36 37 39 40 41 41
28 28 29 29 30 29 29 30 30 29 29 28 27 26 25 25 26 27 28 28 29 28 28 29 30 29 28 28 29 31 31 31 31 31 32 33 32 32 32 33 34 35 35 35 34 33 33 32 33 34 36 38 39 39 39 38 37 36 34 34 34 34 35 35 36 38 39 40 41
28 28 28 29 29 29 29 29 29 29 29 28 28 27 26 26 26 26 27 27 28 27 27 28 30 29 28 27 28 30 30 30 31 31 31 32 31 30 30 31 32 33 34 34 34 34 34 34 34 36 37 38 38 38 38 37 37 36 35 34 35 35 36 37 37 38 38 39 40
29 28 28 28 28 28 29 29 29 29 29 29 29 28 27 27 27 26 26 27 27 26 26 27 29 29 27 26 26 28 29 30 30 31 31 31 30 29 29 29 30 31 32 33 34 35 35 35 36 37 38 38 37 37 37 36 35 34 34 34 35 36 38 38 39 39 39 39 39
29 29 29 28 27 27 28 28 28 29 29 29 29 29 28 27 27 27 27 27 26 25 25 26 29 30 28 26 25 26 28 29 30 30 30 30 29 28 27 27 28 29 30 32 34 36 37 37 37 37 38 37 37 36 36 35 34 33 33 33 34 35 37 39 40 40 40 39 39
30 30 29 28 27 27 27 28 28 28 29 29 29 29 28 29 28 28 28 27 26 25 25 27 29 31 30 28 26 26 27 28 29 30 30 29 28 27 26 27 28 29 31 32 34 36 37 37 37 37 37 37 36 36 35 33 32 31 31 31 32 34 36 38 41 42 42 41 40
31 29 28 27 27 26 27 27 27 28 28 29 29 29 29 29 30 30 29 28 26 25 26 28 30 31 31 30 29 28 28 28 28 28 28 27 26 25 25 27 30 32 34 35 36 37 37 36 36 36 36 36 35 34 33 32 31 30 30 30 31 33 35 37 40 42 42 41 40
30 29 27 27 26 26 26 27 27 28 28 29 29 29 28 29 30 31 30 28 27 26 27 28 30 31 31 30 30 30 29 28 28 27 26 25 24 23 24 27 31 35 37 37 37 36 35 34 34 34 34 34 33 32 31 30 29 29 29 30 31 33 35 37 39 39 39 39 38
29 28 27 26 26 26 26 27 27 28 28 29 29 29 28 29 30 30 30 29 28 28 28 27 29 30 30 30 29 29 28 29 28 27 25 23 23 23 24 27 31 34 36 36 35 34 32 32 32 32 32 32 31 30 29 28 28 28 29 30 32 34 36 37 37 37 36 36 36
26 27 26 26 26 26 27 27 27 28 28 29 29 28 28 28 29 29 29 29 30 29 27 26 28 29 30 30 29 27 26 27 27 26 25 24 24 24 25 27 30 31 32 32 32 31 31 31 31 31 31 30 29 28 28 28 28 29 30 31 33 35 36 36 35 35 35 35 35
24 25 26 26 26 26 27 27 28 28 28 28 29 29 28 28 28 28 30 31 32 30 27 27 28 29 30 31 29 26 25 25 25 25 25 26 27 27 27 28 28 29 28 28 29 29 29 29 29 29 29 28 28 28 28 29 29 30 31 32 33 34 35 34 34 34 34 34 35
23 25 26 26 26 26 26 27 27 28 28 29 29 29 28 27 28 29 30 33 32 31 29 29 29 29 30 30 29 26 24 23 23 24 26 29 30 31 30 29 28 27 26 26 27 27 27 27 28 28 28 28 28 28 29 30 30 31 31 32 32 32 32 32 32 32 32 32 33
23 25 26 26 26 26 26 26 27 27 28 28 29 29 29 28 28 30 31 32 32 31 31 30 29 29 28 28 26 25 23 22 22 23 26 29 31 31 30 29 27 26 26 26 26 26 26 27 27 28 28 28 28 28 29 29 30 30 30 30 30 30 29 29 28 28 28 28 29
24 25 25 26 26 25 25 25 26 27 28 28 29 29 30 30 30 30 30 30 30 31 31 31 29 27 25 24 23 23 22 22 22 23 23 25 27 27 28 27 26 26 26 27 27 27 27 27 28 28 28 28 27 27 28 28 28 28 28 28 28 27 26 25 23 22 22 23 26
23 25 26 26 26 25 26 26 27 28 28 29 30 31 32 32 32 30 28 28 29 30 30 29 27 25 23 21 21 21 21 23 24 23 21 22 22 23 25 26 26 26 26 26 26 26 26 26 26 26 26 25 25 25 25 25 25 25 25 25 25 24 23 21 20 19 19 21 25
22 24 26 27 27 27 27 28 28 28 29 30 31 33 34 34 32 29 27 28 28 28 28 27 26 24 22 20 19 20 22 24 24 23 21 21 21 22 23 25 26 25 25 25 24 24 24 24 23 23 23 23 22 22 22 22 22 22 22 21 21 20 20 19 18 18 19 21 25
20 23 24 26 27 28 28 28 29 29 30 31 32 33 35 35 32 29 27 27 28 27 26 25 24 23 22 20 20 20 22 23 23 23 23 23 22 22 22 23 24 24 23 23 22 22 22 21 21 21 20 20 19 19 19 19 18 18 17 17 16 16 16 16 16 17 19 21 24
18 20 23 25 27 28 28 28 29 30 31 32 32 33 34 34 31 28 27 27 27 26 25 24 23 23 22 21 21 21 22 21 21 22 24 25 24 22 21 20 21 21 21 20 20 20 20 19 19 18 17 16 15 15 14 14 13 12 12 12 12 13 13 14 15 17 19 21 22
19 20 23 24 26 27 28 28 30 32 33 33 31 32 33 32 29 27 26 26 26 25 24 23 23 23 22 22 22 23 23 21 21 21 22 23 23 22 20 19 19 19 19 18 18 17 17 16 16 15 14 13 12 11 10 9 9 9 10 11 12 13 14 14 16 18 20 21 20
23 23 24 25 26 27 29 30 32 33 34 32 31 31 32 30 27 26 26 26 26 25 25 24 24 23 22 21 23 24 23 21 20 19 19 20 20 19 18 18 18 18 17 17 16 15 14 13 13 13 13 12 11 11 11 12 12 13 14 15 16 17 17 19 19 20 21 21 21
27 26 25 26 27 29 31 33 35 35 34 31 31 31 31 29 27 26 26 26 26 26 26 25 24 23 22 22 24 24 22 19 18 18 18 18 17 17 18 19 19 18 17 16 15 14 13 13 13 14 15 15 16 17 17 18 18 18 19 19 19 20 21 21 20 19 19 20 20
29 28 25 27 29 31 33 35 36 35 33 32 31 31 30 28 27 27 27 27 27 27 26 25 23 22 22 22 21 20 18 17 17 18 19 19 20 20 20 21 20 19 18 17 16 15 14 14 15 17 18 18 19 20 21 21 21 21 21 21 21 21 21 21 20 19 19 19 19
29 28 25 27 31 34 35 36 36 35 33 32 31 30 29 28 28 28 28 28 28 27 25 23 22 21 21 20 18 17 18 19 20 22 23 24 24 23 21 20 20 19 18 17 16 15 15 15 16 17 18 19 19 19 20 20 21 21 21 20 20 20 20 20 20 19 19 19 19
28 27 25 27 32 35 36 36 34 33 32 31 30 28 28 28 29 29 29 28 27 26 23 21 21 21 22 21 21 22 24 26 26 26 26 26 26 24 22 20 19 18 17 16 16 15 15 15 15 16 18 19 19 20 20 20 20 20 20 20 19 19 19 19 19 19 19 19 20
27 27 26 27 31 34 34 34 32 31 30 29 28 27 28 29 29 29 29 30 29 27 25 24 24 25 26 27 27 27 28 29 28 27 26 25 25 24 23 21 19 18 17 15 15 15 15 14 15 16 17 19 20 20 20 20 20 20 20 20 19 19 19 19 19 20 20 20 21
26 26 27 28 30 31 32 31 30 29 28 27 26 27 28 29 30 31 31 32 31 30 29 28 28 29 30 31 30 28 28 29 29 27 25 24 23 23 23 22 20 19 17 15 15 15 15 15 15 15 16 18 19 20 21 21 21 21 20 20 20 20 20 20 20 20 21 21 22
25 25 27 29 30 31 30 30 29 28 27 26 26 27 29 30 31 32 32 32 31 31 31 31 30 31 32 32 30 28 27 28 27 26 25 24 23 23 23 22 21 20 18 16 16 16 16 15 15 14 15 16 18 19 20 21 21 21 20 20 19 19 19 20 20 21 21 21 21
24 24 27 31 32 32 31 30 29 27 25 24 27 29 31 31 31 31 30 30 31 31 31 31 30 30 31 31 30 28 26 26 26 26 25 24 24 24 24 23 22 21 19 18 17 16 16 16 15 14 14 14 15 16 17 18 19 19 19 18 18 17 18 18 19 19 19 19 18
24 24 26 31 33 33 32 30 29 26 24 26 29 31 32 32 31 29 29 29 30 31 32 30 29 29 30 30 30 28 27 26 26 26 26 25 25 25 24 24 23 22 20 19 18 17 16 16 15 14 13 13 12 13 13 14 15 16 16 16 15 15 16 16 16 16 15 15 14
25 25 26 30 34 34 33 31 28 26 27 30 33 33 32 31 30 29 29 29 31 32 32 31 30 30 30 30 30 29 28 28 28 27 27 26 25 24 24 23 23 22 21 20 18 17 17 16 15 14 13 12 11 11 11 11 12 13 13 13 13 13 13 13 13 12 11 11 10
26 27 29 30 33 35 33 31 29 30 33 35 35 34 33 31 31 31 31 31 32 33 33 31 30 30 30 29 29 29 29 29 28 28 27 26 25 24 24 23 23 23 21 20 18 17 16 15 15 14 12 11 10 10 9 9 10 10 11 11 12 11 11 10 10 9 9 8 8
27 29 31 31 33 35 35 32 33 36 38 38 37 35 34 33 33 33 33 34 33 33 32 32 31 30 30 29 29 29 29 29 28 27 26 25 25 24 24 24 24 23 22 20 18 17 16 15 14 13 12 11 10 9 9 9 8 9 9 10 10 10 10 9 9 8 8 8 7
Wind_Direction
210 210 210 210 211 211 211 212 212 212 212 212 210 208 208 208 208 209 208 206 207 210 213 214 213 212 212 213 213 213 212 211 211 213 214 215 216 215 213 212 212 213 215 216 216 215 214 214 215 217 220 223 223 222 219 217 216 215 215 214 213 212 210 210 211 213 215 217 219
209 209 209 209 210 210 210 211 211 212 212 212 211 209 208 207 208 208 207 206 207 209 211 212 212 211 211 212 212 212 211 211 212 214 216 217 216 214 213 212 212 213 215 216 217 215 213 213 214 216 218 221 221 220 218 218 218 217 216 215 214 212 212 213 214 216 217 219 221
208 208 208 208 208 209 209 210 210 211 211 212 211 209 207 206 207 207 207 206 206 207 208 210 211 212 212 212 212 212 211 211 212 214 217 218 216 214 212 212 213 214 215 217 218 217 215 213 213 214 216 217 218 218 218 219 220 220 219 217 216 215 214 215 216 217 218 220 223
207 206 206 207 207 208 208 208 209 209 210 211 210 209 208 207 205 206 207 207 206 206 207 209 211 212 212 212 213 213 213 212 213 215 217 218 218 215 213 212 213 214 215 216 218 218 217 214 214 214 215 215 216 217 218 220 221 222 221 220 219 218 217 218 218 218 219 222 226
206 205 205 205 206 207 207 207 207 207 208 209 209 208 208 207 205 205 206 206 205 205 206 207 210 211 211 212 214 215 215 214 214 215 217 218 218 216 214 213 214 215 216 217 218 218 217 216 215 215 215 216 216 218 220 223 223 223 223 222 221 220 220 219 219 219 220 223 227
204 204 204 204 205 206 206 206 206 206 206 208 208 207 206 207 204 202 202 203 205 205 204 205 207 209 209 212 215 216 216 216 215 215 216 217 218 217 216 215 216 217 217 218 218 218 218 217 216 217 217 218 217 219 222 224 225 224 223 222 224 224 222 221 220 220 222 225 228
204 203 203 204 205 205 205 205 205 205 205 206 207 207 207 206 204 203 203 203 204 204 203 202 204 205 207 209 213 215 216 215 215 214 214 216 217 217 216 216 217 217 218 219 219 219 218 218 218 218 219 220 220 220 221 222 223 223 222 222 224 225 224 223 222 223 225 227 228
204 203 203 203 204 204 204 204 203 203 204 205 206 208 208 208 207 206 205 204 204 204 203 202 202 203 205 208 212 213 213 213 213 213 213 214 216 216 215 215 216 217 218 219 220 219 219 219 219 220 221 222 222 221 220 219 218 219 220 222 223 225 225 224 224 225 227 228 227
204 202 202 203 203 203 204 204 203 203 203 204 205 207 209 209 209 208 206 205 205 205 204 203 202 203 206 208 211 212 212 211 211 211 211 213 214 215 215 215 216 217 218 220 220 221 220 220 220 221 222 223 222 221 219 216 214 214 217 220 223 225 226 226 227 228 229 228 228
202 201 201 202 203 203 203 203 203 203 203 204 204 205 206 207 207 207 207 207 207 206 206 205 204 204 205 208 211 211 211 210 210 210 210 212 214 215 215 215 215 216 217 219 221 222 222 222 222 222 223 223 221 220 218 216 215 215 217 220 223 226 228 228 228 228 228 228 228
201 200 199 201 202 203 203 202 202 202 202 203 203 203 204 204 204 205 206 207 207 206 207 206 205 204 204 205 208 209 209 209 210 211 211 212 214 215 215 214 214 215 217 219 221 222 223 224 223 223 222 221 219 218 217 217 218 219 221 223 225 226 227 228 228 228 227 228 229
200 200 199 200 202 203 203 202 201 200 200 200 202 203 203 203 202 202 202 204 204 205 206 206 205 203 202 202 203 206 207 209 211 212 213 214 215 216 215 214 214 215 216 218 220 222 224 224 224 222 220 218 216 216 216 219 221 223 225 227 227 227 227 227 227 226 227 228 229
200 201 200 199 201 202 202 201 200 198 198 198 199 201 203 203 201 199 199 200 201 203 204 205 205 203 201 199 199 202 205 209 212 214 215 215 216 216 216 215 215 215 216 218 220 222 223 223 222 220 217 215 213 214 217 220 222 225 227 229 229 229 229 228 227 227 227 228 229
201 201 200 199 199 200 200 200 199 199 198 199 199 201 203 203 199 197 198 199 201 203 204 206 206 205 202 199 198 200 204 209 212 214 214 215 216 217 218 218 217 216 217 218 219 221 222 221 219 216 214 212 213 215 218 221 224 226 229 230 231 232 232 230 229 228 227 228 229
202 201 200 199 198 198 198 198 199 199 199 200 200 201 201 202 199 197 197 199 203 206 207 208 207 205 203 201 200 201 204 207 210 211 213 214 216 220 222 221 219 217 217 217 218 219 220 218 216 213 212 213 215 218 220 223 226 228 231 232 234 235 235 233 231 229 228 229 231
204 201 198 197 196 196 197 199 200 200 200 201 201 200 200 201 199 198 198 200 205 209 210 208 205 203 202 202 202 202 203 204 206 207 209 211 216 221 223 221 218 216 215 216 216 217 217 215 213 212 213 215 218 220 223 226 229 231 233 235 236 238 237 235 232 230 230 231 233
204 200 197 195 194 194 196 199 201 202 202 202 201 200 200 201 201 200 200 202 207 210 209 204 200 198 199 201 202 202 201 201 201 203 205 210 216 220 221 219 217 214 213 213 213 213 213 212 212 213 215 217 220 223 226 229 232 233 235 237 238 239 239 237 234 232 231 233 235
204 200 197 195 194 194 196 200 202 204 204 204 201 200 201 202 202 202 203 205 207 207 204 199 196 196 197 198 200 201 201 200 199 201 205 211 216 218 217 216 215 213 211 210 209 209 209 210 211 213 216 219 222 226 229 232 235 236 237 238 239 239 238 237 235 234 234 236 238
205 199 197 196 196 197 199 201 204 206 206 205 202 200 200 202 202 203 204 206 207 205 200 196 196 197 198 198 198 199 200 201 202 205 210 216 216 215 213 213 212 210 208 207 207 208 210 212 214 216 219 222 225 229 232 235 237 238 239 239 239 239 238 238 237 238 239 241 242
207 200 197 197 198 199 201 203 206 208 208 205 202 200 200 202 202 203 205 206 205 203 200 199 200 200 200 199 199 199 201 204 207 211 215 217 215 212 209 208 207 207 206 207 209 212 215 218 220 222 224 226 228 230 232 234 236 237 238 238 239 239 239 240 240 241 242 243 244
210 204 201 199 200 200 202 205 208 210 209 206 203 201 200 201 202 203 205 205 204 202 201 202 202 202 201 200 200 201 203 207 210 213 215 215 213 210 206 203 202 204 207 210 214 217 219 221 223 224 226 227 228 229 230 231 233 234 236 237 239 240 241 242 243 244 245 246 247
212 207 204 202 201 201 202 205 208 210 209 206 202 200 200 201 203 204 204 202 200 200 201 202 201 200 199 199 199 200 203 206 208 210 210 209 208 206 203 200 199 201 205 210 214 217 219 220 222 222 223 224 225 226 227 228 230 232 234 236 239 241 243 245 247 248 250 251 252
215 208 204 203 202 201 203 205 208 209 209 206 202 199 199 200 202 202 200 196 196 197 198 198 196 195 195 195 195 197 200 202 205 204 201 198 199 199 198 197 197 198 200 204 208 211 214 215 216 217 218 219 220 222 224 226 229 231 234 236 239 242 245 247 250 252 255 257 256
216 208 203 202 201 202 203 206 207 208 207 205 203 200 199 200 202 200 195 190 190 192 193 192 189 188 188 189 191 194 198 201 202 199 192 187 187 189 192 194 195 196 196 198 201 203 206 207 208 210 212 215 218 221 224 227 229 232 235 238 241 244 246 248 249 252 255 257 255
215 208 204 201 202 204 204 205 206 206 206 205 203 202 201 201 201 197 191 185 185 186 186 185 184 182 183 185 189 195 200 202 199 192 184 181 182 185 188 190 191 193 194 195 197 199 201 203 206 209 212 216 220 223 226 228 231 234 237 241 243 246 247 247 248 250 253 255 253
213 208 204 201 203 203 203 204 205 205 205 205 203 201 201 201 198 193 186 181 180 180 180 180 180 180 181 185 191 198 202 200 193 185 181 181 183 185 186 185 187 190 193 196 199 201 204 207 211 214 217 220 222 223 225 227 230 233 236 239 241 243 244 246 247 250 253 255 254
224 213 205 201 201 201 201 203 204 205 205 203 200 198 198 197 193 186 180 177 176 175 175 177 178 180 183 188 194 199 199 193 184 180 180 181 184 185 184 184 187 191 196 199 202 205 207 210 213 215 216 216 216 217 218 221 224 227 230 233 236 238 241 245 248 252 255 256 256
250 228 211 203 199 199 200 202 204 206 205 202 197 195 194 191 185 179 176 174 172 172 173 175 178 181 184 190 195 198 195 188 182 180 181 182 184 185 187 189 193 197 198 200 201 203 204 206 207 206 204 201 200 201 204 210 214 220 225 232 237 242 247 250 253 256 258 259 259
267 245 222 206 199 199 202 204 205 205 203 199 195 192 189 183 178 175 173 171 170 170 172 175 178 180 184 189 194 194 191 188 187 188 188 188 189 189 189 191 195 197 197 197 197 198 199 200 200 198 193 187 188 193 200 207 212 216 220 224 227 231 237 242 246 249 252 254 256
274 256 231 208 201 203 206 207 206 204 201 196 193 189 184 178 176 174 173 170 168 169 172 175 176 178 182 188 190 189 188 190 194 197 197 195 192 189 188 189 191 192 193 193 193 193 194 196 200 200 197 196 199 202 204 206 208 210 213 215 218 221 225 228 228 228 231 236 241
276 263 236 209 204 206 209 207 204 201 198 194 191 185 180 177 177 175 172 169 168 170 172 174 174 177 182 186 186 185 186 190 195 196 193 186 184 185 187 187 187 187 188 187 187 187 189 194 200 203 203 203 204 206 207 209 210 212 215 218 220 223 227 229 228 226 224 224 226
275 265 242 213 207 208 209 205 201 198 196 193 188 182 178 179 177 174 171 169 170 171 172 172 173 176 180 182 183 182 181 180 180 182 184 184 182 183 184 184 183 183 182 181 181 182 185 191 198 204 206 207 208 210 212 214 216 218 220 223 226 228 230 232 231 229 227 225 225
275 266 246 220 209 208 207 202 199 196 194 190 185 181 179 178 174 171 168 168 168 169 170 169 171 173 175 176 176 179 180 179 176 175 177 179 180 181 181 180 178 177 177 178 178 180 183 190 198 205 209 211 211 213 216 219 221 223 224 226 228 230 230 231 231 230 229 228 229
276 265 248 226 212 207 204 200 197 194 190 187 182 179 176 172 168 164 163 163 164 164 163 163 166 171 176 179 180 179 178 176 173 172 173 175 178 180 179 177 173 172 174 176 178 180 184 190 198 206 211 213 215 217 219 222 224 226 227 227 227 227 228 228 229 230 231 232 233
277 264 248 229 216 208 204 200 195 191 187 183 178 173 169 165 162 160 160 163 164 164 165 166 170 174 177 181 181 178 173 171 170 170 172 175 178 179 178 175 171 170 172 175 179 181 184 188 196 203 209 213 216 219 221 224 225 226 226 225 224 224 225 227 229 232 233 234 235
277 264 248 232 219 211 205 199 193 188 184 179 173 167 163 160 158 159 162 165 166 167 168 172 174 175 176 178 177 172 168 167 168 170 173 176 179 179 176 172 170 168 169 172 177 180 183 186 190 196 203 209 215 218 222 224 226 226 226 225 224 224 225 226 229 232 232 232 232
276 265 248 233 221 212 205 198 191 186 182 175 168 162 157 155 156 159 163 166 167 168 170 173 174 173 172 173 169 164 162 164 167 170 173 176 178 177 173 170 167 166 166 169 174 178 180 182 185 188 193 201 208 214 219 223 225 226 227 226 226 226 226 226 227 228 228 228 229
273 265 250 233 221 211 203 195 190 185 178 170 164 158 154 154 156 159 163 167 169 170 170 170 168 166 166 165 161 157 156 160 166 169 170 173 174 173 171 168 165 162 162 165 170 174 175 176 178 182 186 191 198 205 212 217 221 223 225 225 225 226 226 225 223 222 221 222 224
267 263 253 237 221 210 201 194 188 179 170 164 157 155 155 157 159 161 165 169 173 173 171 166 161 158 157 158 156 156 157 161 165 168 168 167 168 169 169 167 163 160 159 161 165 168 170 171 173 176 180 183 187 193 200 208 214 218 220 220 220 219 219 218 216 213 211 211 212
261 256 250 243 225 210 199 191 180 170 163 158 155 156 159 161 161 163 165 169 170 170 168 164 157 153 153 155 155 156 159 162 164 166 166 164 164 166 168 167 163 159 157 159 163 166 167 168 170 173 176 179 180 182 187 196 205 211 213 213 212 209 207 207 207 203 198 196 196
256 249 245 244 228 212 199 185 169 161 159 158 157 159 161 163 163 163 164 165 162 161 161 160 157 154 154 156 158 159 161 160 161 162 163 163 163 165 167 166 163 160 158 159 163 166 168 169 170 173 176 178 178 178 180 186 195 199 201 203 202 200 196 192 191 188 184 183 181